This is the latest recevied weather packets stored in our database for station/object KT5AL. If no packets are shown the sender has not sent any weather packets the latest 10 day(s).
| Time | Temp. | Humidity | Pressure | Rain* | Wind** | Luminosity | Snow |
|---|---|---|---|---|---|---|---|
| 1777589408 | 17.22° C | 75% | 1014.4 hPa | 0 mm | - | - | - |
| 1777589104 | 17.22° C | 75% | 1014.4 hPa | 0 mm | - | - | - |
| 1777588808 | 17.22° C | 75% | 1014.4 hPa | 0 mm | - | - | - |
| 1777588504 | 17.22° C | 77% | 1015.1 hPa | 0 mm | - | - | - |
| 1777588207 | 17.22° C | 79% | 1015.1 hPa | 0 mm | - | - | - |
| 1777587905 | 17.22° C | 78% | 1015.1 hPa | 0 mm | - | - | - |
| 1777587607 | 17.22° C | 77% | 1015.1 hPa | 0 mm | - | - | - |
| 1777587304 | 17.22° C | 77% | 1014.8 hPa | 0 mm | - | - | - |
| 1777587007 | 17.22° C | 75% | 1014.8 hPa | 0 mm | - | - | - |
| 1777586704 | 17.22° C | 75% | 1014.4 hPa | 0 mm | - | - | - |
| 1777586407 | 17.22° C | 76% | 1014.4 hPa | 0 mm | - | - | - |
| 1777586104 | 17.22° C | 77% | 1014.8 hPa | 0 mm | - | - | - |
| 1777585807 | 17.22° C | 77% | 1014.8 hPa | 0 mm | - | - | - |
| 1777585504 | 17.22° C | 77% | 1014.8 hPa | 0 mm | - | - | - |
| 1777585208 | 17.22° C | 78% | 1014.8 hPa | 0 mm | - | - | - |
| 1777584904 | 17.22° C | 79% | 1014.8 hPa | 0 mm | - | - | - |
| 1777584608 | 17.22° C | 78% | 1014.8 hPa | 0 mm | - | - | - |
| 1777584305 | 17.22° C | 77% | 1015.1 hPa | 0 mm | - | - | - |
| 1777584008 | 17.22° C | 78% | 1015.1 hPa | 0 mm | - | - | - |
| 1777583705 | 17.22° C | 79% | 1015.4 hPa | 0 mm | - | - | - |
| 1777583407 | 17.22° C | 76% | 1015.4 hPa | 0 mm | - | - | - |
| 1777583105 | 17.22° C | 78% | 1015.1 hPa | 0 mm | - | - | - |
| 1777582808 | 17.22° C | 79% | 1015.1 hPa | 0 mm | - | - | - |
| 1777582505 | 17.22° C | 77% | 1015.1 hPa | 0 mm | - | - | - |
| 1777582228 | 17.22° C | 77% | 1015.1 hPa | 0 mm | - | - | - |
* Rain latest hour (hover to see other rain measurements)
** Current wind speed in m/s (hover to see current wind gust speed)